| time (UTC) | temp C | wind direction | speed KPH | gust KPH | rain 1hr cm | rain 24hr cm | rain mn cm | humidity % | barometer mb |
| 20260904010232 | 13 | 207 | 4.8 | 14.5 | 0.08 | 0.53 | 0.18 | 96 | 1006.8 |
| 20260904005717 | 13 | 196 | 6.4 | 14.5 | 0.10 | 0.53 | 0.18 | 96 | 1007.0 |
| 20260904005204 | 13 | 176 | 8.0 | 17.7 | 0.08 | 0.51 | 0.15 | 96 | 1007.0 |
| 20260904004205 | 13 | 171 | 8.0 | 12.9 | 0.10 | 0.51 | 0.15 | 95 | 1007.4 |
| 20260904003704 | 13 | 192 | 8.0 | 14.5 | 0.10 | 0.51 | 0.15 | 95 | 1007.3 |
| 20260904003145 | 13 | 180 | 8.0 | 17.7 | 0.10 | 0.51 | 0.15 | 95 | 1007.7 |
| 20260904002643 | 13 | 196 | 6.4 | 17.7 | 0.08 | 0.51 | 0.15 | 95 | 1007.5 |
| 20260904002150 | 13 | 178 | 6.4 | 19.3 | 0.10 | 0.51 | 0.15 | 95 | 1007.6 |
| 20260904001648 | 13 | 182 | 9.7 | 19.3 | 0.13 | 0.51 | 0.15 | 95 | 1007.5 |
| 20260904001146 | 13 | 221 | 9.7 | 17.7 | 0.10 | 0.48 | 0.13 | 95 | 1007.5 |
| 20260904000645 | 14 | 200 | 8.0 | 19.3 | 0.08 | 0.46 | 0.10 | 95 | 1007.7 |
| 20260904000133 | 14 | 193 | 9.7 | 19.3 | 0.10 | 0.46 | 0.08 | 95 | 1007.8 |
| 20260903235632 | 14 | 206 | 6.4 | 14.5 | 0.08 | 0.43 | 0.08 | 95 | 1007.9 |
| 20260903234604 | 14 | 206 | 9.7 | 20.9 | 0.05 | 0.43 | 0.05 | 94 | 1008.1 |
| 20260903233045 | 14 | 210 | 9.7 | 19.3 | 0.08 | 0.43 | 0.05 | 94 | 1008.3 |
| 20260903231006 | 14 | 183 | 8.0 | 19.3 | 0.05 | 0.38 | 0.03 | 94 | 1008.7 |
| 20260903230506 | 14 | 214 | 8.0 | 25.7 | 0.05 | 0.38 | 0.03 | 94 | 1008.8 |
| 20260903230004 | 15 | 206 | 8.0 | 25.7 | 0.05 | 0.36 | 0.36 | 94 | 1008.8 |
| 20260903224945 | 15 | 240 | 9.7 | 19.3 | 0.05 | 0.36 | 0.36 | 94 | 1008.8 |
| 20260903224442 | 15 | 223 | 8.0 | 19.3 | 0.05 | 0.36 | 0.36 | 94 | 1008.9 |
| 20260903223433 | 15 | 195 | 9.7 | 17.7 | 0.03 | 0.33 | 0.33 | 94 | 1009.0 |
| 20260903222911 | 15 | 168 | 8.0 | 19.3 | 0.03 | 0.33 | 0.33 | 94 | 1009.0 |
| 20260903222407 | 15 | 176 | 11.3 | 19.3 | 0.03 | 0.33 | 0.33 | 94 | 1009.0 |
| 20260903221906 | 15 | 207 | 11.3 | 19.3 | 0.03 | 0.33 | 0.33 | 94 | 1009.0 |
| 20260903221406 | 15 | 206 | 9.7 | 22.5 | 0.03 | 0.33 | 0.33 | 94 | 1009.0 |
| 20260903220850 | 15 | 152 | 11.3 | 27.4 | 0.05 | 0.33 | 0.33 | 94 | 1008.9 |
| 20260903220344 | 15 | 213 | 11.3 | 27.4 | 0.05 | 0.33 | 0.33 | 94 | 1009.0 |
| 20260903215845 | 15 | 203 | 9.7 | 25.7 | 0.03 | 0.33 | 0.33 | 94 | 1009.2 |
| 20260903215343 | 15 | 213 | 11.3 | 19.3 | 0.03 | 0.33 | 0.33 | 94 | 1009.2 |
| 20260903214843 | 15 | 217 | 9.7 | 19.3 | 0.03 | 0.33 | 0.33 | 94 | 1009.1 |
| 20260903214333 | 15 | 171 | 8.0 | 19.3 | 0.03 | 0.33 | 0.33 | 94 | 1009.3 |
| 20260903213832 | 15 | 204 | 9.7 | 19.3 | 0.03 | 0.33 | 0.33 | 94 | 1009.4 |
| 20260903213306 | 15 | 223 | 12.9 | 24.1 | 0.03 | 0.33 | 0.33 | 94 | 1009.4 |
| 20260903212308 | 15 | 182 | 17.7 | 29.0 | 0.05 | 0.33 | 0.33 | 94 | 1009.4 |
| 20260903211807 | 15 | 200 | 9.7 | 30.6 | 0.05 | 0.33 | 0.33 | 94 | 1009.6 |
| 20260903211305 | 15 | 189 | 19.3 | 30.6 | 0.05 | 0.33 | 0.33 | 94 | 1009.6 |
| 20260903210806 | 15 | 197 | 9.7 | 22.5 | 0.03 | 0.30 | 0.30 | 94 | 1009.7 |
| 20260903205802 | 15 | 154 | 9.7 | 24.1 | 0.05 | 0.30 | 0.30 | 94 | 1009.7 |
| 20260903205306 | 15 | 155 | 14.5 | 29.0 | 0.05 | 0.30 | 0.30 | 94 | 1009.7 |
| 20260903204744 | 15 | 204 | 12.9 | 29.0 | 0.05 | 0.30 | 0.30 | 94 | 1009.6 |
| 20260903204243 | 15 | 212 | 11.3 | 29.0 | 0.05 | 0.30 | 0.30 | 94 | 1009.6 |
| 20260903203733 | 15 | 199 | 16.1 | 29.0 | 0.10 | 0.30 | 0.30 | 94 | 1009.6 |
| 20260903203231 | 16 | 196 | 14.5 | 29.0 | 0.15 | 0.30 | 0.30 | 94 | 1009.8 |
| 20260903202708 | 16 | 190 | 17.7 | 29.0 | 0.18 | 0.30 | 0.30 | 94 | 1009.8 |
| 20260903202205 | 16 | 172 | 14.5 | 30.6 | 0.18 | 0.28 | 0.28 | 94 | 1009.8 |
| 20260903201702 | 16 | 179 | 17.7 | 30.6 | 0.20 | 0.28 | 0.28 | 94 | 1009.9 |
| 20260903201205 | 16 | 196 | 14.5 | 25.7 | 0.23 | 0.28 | 0.28 | 94 | 1010.0 |
| 20260903200707 | 16 | 202 | 16.1 | 25.7 | 0.23 | 0.28 | 0.28 | 94 | 1009.9 |
| 20260903200203 | 16 | 175 | 8.0 | 17.7 | 0.20 | 0.25 | 0.25 | 94 | 1010.1 |
| 20260903195643 | 16 | 168 | 8.0 | 22.5 | 0.20 | 0.05 | 0.25 | 93 | 1010.3 |
| 20260903195145 | 16 | 204 | 8.0 | 22.5 | 0.18 | 0.05 | 0.23 | 92 | 1010.3 |
| 20260903194647 | 16 | 228 | 9.7 | 17.7 | 0.18 | 0.05 | 0.23 | 92 | 1010.3 |
| 20260903194145 | 16 | 166 | 6.4 | 17.7 | 0.15 | 0.05 | 0.23 | 92 | 1010.3 |
| 20260903193644 | 16 | 221 | 8.0 | 17.7 | 0.13 | 0.05 | 0.15 | 90 | 1010.5 |
| 20260903193144 | 16 | 219 | 11.3 | 17.7 | 0.08 | 0.05 | 0.15 | 90 | 1010.4 |
| 20260903192643 | 16 | 195 | 3.2 | 17.7 | 0.05 | 0.05 | 0.10 | 89 | 1010.3 |
| 20260903192145 | 17 | 209 | 8.0 | 14.5 | 0.03 | 0.05 | 0.08 | 88 | 1010.4 |
| 20260903191645 | 17 | 217 | 8.0 | 20.9 | 0.03 | 0.05 | 0.08 | 88 | 1010.3 |
| 20260903191144 | 17 | 206 | 6.4 | 22.5 | 0.00 | 0.05 | 0.05 | 88 | 1010.4 |
| 20260903190644 | 17 | 209 | 11.3 | 24.1 | 0.00 | 0.05 | 0.05 | 87 | 1010.4 |
| 20260903190145 | 17 | 213 | 11.3 | 32.2 | 0.00 | 0.05 | 0.05 | 87 | 1010.5 |
| 20260903185645 | 17 | 245 | 9.7 | 32.2 | 0.00 | 0.05 | 0.05 | 87 | 1010.5 |
| 20260903185144 | 17 | 202 | 16.1 | 29.0 | 0.00 | 0.05 | 0.05 | 87 | 1010.4 |
| 20260903184644 | 17 | 199 | 12.9 | 29.0 | 0.00 | 0.05 | 0.05 | 87 | 1010.3 |
| 20260903184145 | 17 | 219 | 14.5 | 25.7 | 0.00 | 0.05 | 0.05 | 87 | 1010.5 |
| 20260903183645 | 17 | 235 | 14.5 | 24.1 | 0.00 | 0.05 | 0.05 | 87 | 1010.5 |
| 20260903183144 | 17 | 196 | 11.3 | 30.6 | 0.00 | 0.05 | 0.05 | 88 | 1010.6 |
| 20260903182143 | 17 | 231 | 14.5 | 24.1 | 0.00 | 0.05 | 0.05 | 89 | 1010.7 |
| 20260903181644 | 17 | 199 | 14.5 | 24.1 | 0.00 | 0.05 | 0.05 | 89 | 1010.8 |
| 20260903181145 | 17 | 257 | 12.9 | 20.9 | 0.00 | 0.05 | 0.05 | 88 | 1010.8 |
| 20260903180644 | 17 | 209 | 14.5 | 20.9 | 0.03 | 0.05 | 0.05 | 88 | 1010.6 |
| 20260903175145 | 17 | 216 | 11.3 | 27.4 | 0.03 | 0.05 | 0.05 | 88 | 1010.6 |
| 20260903174644 | 17 | 238 | 12.9 | 22.5 | 0.03 | 0.05 | 0.05 | 88 | 1010.8 |
| 20260903174144 | 17 | 233 | 12.9 | 22.5 | 0.03 | 0.05 | 0.05 | 88 | 1010.8 |
| 20260903173644 | 17 | 210 | 6.4 | 24.1 | 0.03 | 0.05 | 0.05 | 88 | 1010.8 |
| 20260903173144 | 17 | 243 | 16.1 | 24.1 | 0.03 | 0.05 | 0.05 | 88 | 1010.7 |
| 20260903172646 | 17 | 221 | 11.3 | 29.0 | 0.03 | 0.05 | 0.05 | 87 | 1010.8 |
| 20260903172148 | 17 | 221 | 14.5 | 29.0 | 0.03 | 0.05 | 0.05 | 87 | 1010.7 |
| 20260903171646 | 17 | 231 | 9.7 | 29.0 | 0.03 | 0.05 | 0.05 | 87 | 1010.8 |
| 20260903171147 | 17 | 238 | 12.9 | 29.0 | 0.03 | 0.05 | 0.05 | 86 | 1010.8 |
| 20260903170645 | 17 | 237 | 11.3 | 22.5 | 0.00 | 0.05 | 0.05 | 86 | 1010.9 |
| 20260903170144 | 17 | 189 | 11.3 | 20.9 | 0.00 | 0.05 | 0.05 | 85 | 1010.9 |
| 20260903165147 | 18 | 213 | 9.7 | 22.5 | 0.00 | 0.05 | 0.05 | 82 | 1011.1 |
| 20260903164145 | 18 | 226 | 14.5 | 32.2 | 0.00 | 0.05 | 0.05 | 80 | 1011.4 |
| 20260903162644 | 19 | 203 | 16.1 | 35.4 | 0.00 | 0.05 | 0.05 | 77 | 1011.2 |
| 20260903161644 | 19 | 223 | 14.5 | 33.8 | 0.00 | 0.05 | 0.05 | 77 | 1011.5 |
| 20260903161145 | 19 | 214 | 17.7 | 35.4 | 0.00 | 0.05 | 0.05 | 76 | 1011.4 |
| 20260903160645 | 19 | 234 | 12.9 | 35.4 | 0.00 | 0.05 | 0.05 | 76 | 1011.5 |
| 20260903154645 | 20 | 231 | 20.9 | 45.1 | 0.00 | 0.05 | 0.05 | 75 | 1011.8 |
| 20260903154144 | 20 | 220 | 19.3 | 45.1 | 0.00 | 0.05 | 0.05 | 76 | 1011.8 |
| 20260903153644 | 20 | 199 | 12.9 | 29.0 | 0.00 | 0.05 | 0.05 | 74 | 1011.7 |
| 20260903153144 | 20 | 244 | 19.3 | 38.6 | 0.00 | 0.05 | 0.05 | 74 | 1011.8 |
| 20260903152644 | 20 | 228 | 19.3 | 38.6 | 0.00 | 0.05 | 0.05 | 74 | 1011.9 |
| 20260903152144 | 20 | 202 | 17.7 | 33.8 | 0.00 | 0.05 | 0.05 | 73 | 1011.8 |
| 20260903151644 | 20 | 188 | 16.1 | 38.6 | 0.00 | 0.05 | 0.05 | 72 | 1011.9 |
| 20260903151144 | 20 | 209 | 22.5 | 38.6 | 0.00 | 0.05 | 0.05 | 71 | 1012.0 |
| 20260903150132 | 20 | 217 | 16.1 | 33.8 | 0.00 | 0.05 | 0.05 | 70 | 1011.9 |
| 20260903145632 | 21 | 257 | 17.7 | 32.2 | 0.00 | 0.05 | 0.05 | 70 | 1011.9 |
| 20260903145105 | 21 | 272 | 17.7 | 32.2 | 0.00 | 0.05 | 0.05 | 69 | 1012.1 |
| 20260903144606 | 21 | 271 | 14.5 | 25.7 | 0.00 | 0.05 | 0.05 | 69 | 1011.9 |
| 20260903143042 | 21 | 265 | 11.3 | 30.6 | 0.00 | 0.08 | 0.05 | 69 | 1012.0 |
| 20260903142545 | 20 | 231 | 16.1 | 30.6 | 0.00 | 0.08 | 0.05 | 69 | 1012.0 |
| 20260903142043 | 20 | 219 | 12.9 | 37.0 | 0.00 | 0.08 | 0.05 | 68 | 1011.9 |
| 20260903141542 | 20 | 244 | 20.9 | 37.0 | 0.00 | 0.08 | 0.05 | 68 | 1011.8 |
| 20260903141047 | 20 | 223 | 17.7 | 35.4 | 0.00 | 0.08 | 0.05 | 70 | 1011.7 |
| 20260903140541 | 20 | 212 | 16.1 | 35.4 | 0.00 | 0.08 | 0.05 | 69 | 1011.6 |
| 20260903140039 | 20 | 200 | 19.3 | 38.6 | 0.00 | 0.08 | 0.05 | 69 | 1011.7 |
| 20260903135537 | 20 | 233 | 24.1 | 38.6 | 0.00 | 0.08 | 0.05 | 69 | 1011.9 |
| 20260903135008 | 20 | 202 | 14.5 | 37.0 | 0.00 | 0.08 | 0.05 | 69 | 1011.8 |
| 20260903134509 | 20 | 296 | 17.7 | 37.0 | 0.00 | 0.08 | 0.05 | 69 | 1011.7 |
| 20260903133948 | 20 | 217 | 25.7 | 37.0 | 0.00 | 0.08 | 0.05 | 69 | 1011.6 |
| 20260903133442 | 20 | 224 | 25.7 | 32.2 | 0.00 | 0.08 | 0.05 | 70 | 1011.7 |
| 20260903132944 | 20 | 257 | 12.9 | 32.2 | 0.00 | 0.08 | 0.05 | 70 | 1011.9 |
| 20260903132448 | 19 | 257 | 20.9 | 30.6 | 0.00 | 0.08 | 0.05 | 70 | 1012.1 |
| 20260903131943 | 20 | 226 | 9.7 | 41.8 | 0.00 | 0.08 | 0.05 | 68 | 1012.1 |
| 20260903131442 | 20 | 262 | 17.7 | 41.8 | 0.00 | 0.10 | 0.05 | 68 | 1011.9 |
| 20260903130933 | 20 | 234 | 16.1 | 33.8 | 0.00 | 0.10 | 0.05 | 68 | 1012.0 |
| 20260903130432 | 20 | 206 | 16.1 | 35.4 | 0.00 | 0.13 | 0.05 | 68 | 1011.9 |
| 20260903125934 | 20 | 238 | 22.5 | 29.0 | 0.00 | 0.15 | 0.05 | 67 | 1011.9 |
| 20260903125416 | 20 | 247 | 14.5 | 40.2 | 0.00 | 0.15 | 0.05 | 67 | 1011.8 |
| 20260903124916 | 20 | 226 | 17.7 | 40.2 | 0.00 | 0.15 | 0.05 | 67 | 1011.7 |
| 20260903124408 | 20 | 295 | 17.7 | 35.4 | 0.00 | 0.15 | 0.05 | 67 | 1011.6 |
| 20260903123906 | 20 | 275 | 16.1 | 35.4 | 0.00 | 0.15 | 0.05 | 75 | 1011.6 |
| 20260903123405 | 20 | 252 | 17.7 | 32.2 | 0.00 | 0.18 | 0.05 | 75 | 1011.6 |
| 20260903122405 | 20 | 228 | 17.7 | 40.2 | 0.00 | 0.18 | 0.05 | 72 | 1011.9 |
| 20260903121904 | 20 | 209 | 19.3 | 30.6 | 0.00 | 0.18 | 0.05 | 72 | 1011.9 |
| 20260903121405 | 20 | 245 | 16.1 | 33.8 | 0.00 | 0.18 | 0.05 | 72 | 1011.9 |
| 20260903120904 | 20 | 216 | 22.5 | 40.2 | 0.00 | 0.18 | 0.05 | 72 | 1012.0 |
| 20260903120403 | 20 | 237 | 19.3 | 40.2 | 0.00 | 0.18 | 0.05 | 72 | 1011.9 |
| 20260903115842 | 20 | 179 | 16.1 | 32.2 | 0.00 | 0.18 | 0.05 | 72 | 1011.8 |
| 20260903114833 | 20 | 231 | 11.3 | 29.0 | 0.00 | 0.18 | 0.05 | 72 | 1011.9 |
| 20260903113807 | 21 | 228 | 22.5 | 35.4 | 0.00 | 0.18 | 0.05 | 75 | 1011.8 |
| 20260903113250 | 21 | 214 | 17.7 | 33.8 | 0.00 | 0.18 | 0.05 | 75 | 1011.7 |
| 20260903112743 | 20 | 259 | 22.5 | 30.6 | 0.00 | 0.18 | 0.05 | 75 | 1011.7 |
| 20260903112244 | 20 | 251 | 16.1 | 27.4 | 0.00 | 0.18 | 0.05 | 77 | 1011.6 |
| 20260903111731 | 19 | 231 | 16.1 | 27.4 | 0.00 | 0.18 | 0.05 | 80 | 1011.4 |
| 20260903111234 | 19 | 303 | 8.0 | 19.3 | 0.00 | 0.18 | 0.05 | 82 | 1011.7 |
| 20260903110734 | 19 | 261 | 8.0 | 17.7 | 0.00 | 0.18 | 0.05 | 82 | 1011.6 |
| 20260903110231 | 18 | 233 | 8.0 | 17.7 | 0.00 | 0.18 | 0.05 | 82 | 1011.6 |
| 20260903105733 | 18 | 258 | 9.7 | 24.1 | 0.00 | 0.18 | 0.05 | 81 | 1011.8 |
| 20260903103706 | 18 | 286 | 9.7 | 22.5 | 0.00 | 0.18 | 0.05 | 81 | 1011.6 |
| 20260903103207 | 18 | 259 | 14.5 | 22.5 | 0.00 | 0.18 | 0.05 | 80 | 1011.7 |
| 20260903102203 | 18 | 216 | 9.7 | 24.1 | 0.00 | 0.18 | 0.05 | 80 | 1011.6 |
| 20260903101703 | 18 | 223 | 14.5 | 27.4 | 0.00 | 0.18 | 0.05 | 80 | 1011.6 |
| 20260903101155 | 19 | 235 | 14.5 | 27.4 | 0.00 | 0.18 | 0.05 | 80 | 1011.7 |
| 20260903100146 | 18 | 281 | 11.3 | 27.4 | 0.00 | 0.18 | 0.05 | 81 | 1011.4 |
| 20260903095642 | 18 | 254 | 14.5 | 29.0 | 0.00 | 0.18 | 0.05 | 80 | 1011.3 |
| 20260903095143 | 18 | 234 | 14.5 | 29.0 | 0.00 | 0.18 | 0.05 | 82 | 1011.3 |
| 20260903094644 | 18 | 221 | 11.3 | 25.7 | 0.00 | 0.18 | 0.05 | 82 | 1011.4 |
| 20260903094142 | 18 | 219 | 11.3 | 25.7 | 0.00 | 0.18 | 0.05 | 83 | 1011.5 |
| 20260903093648 | 18 | 200 | 16.1 | 25.7 | 0.00 | 0.18 | 0.05 | 85 | 1011.5 |
| 20260903093143 | 18 | 223 | 16.1 | 25.7 | 0.00 | 0.18 | 0.05 | 85 | 1011.4 |
| 20260903091643 | 18 | 195 | 14.5 | 25.7 | 0.00 | 0.18 | 0.05 | 88 | 1011.5 |
| 20260903091145 | 18 | 223 | 4.8 | 24.1 | 0.03 | 0.18 | 0.05 | 88 | 1011.2 |
| 20260903090644 | 17 | 269 | 11.3 | 24.1 | 0.05 | 0.18 | 0.05 | 89 | 1011.4 |
| 20260903090141 | 17 | 240 | 9.7 | 20.9 | 0.05 | 0.18 | 0.05 | 90 | 1011.3 |
| 20260903085643 | 17 | 243 | 12.9 | 19.3 | 0.05 | 0.15 | 0.05 | 91 | 1011.2 |
| 20260903085144 | 17 | 259 | 12.9 | 20.9 | 0.05 | 0.15 | 0.05 | 93 | 1011.3 |
| 20260903084643 | 17 | 240 | 11.3 | 20.9 | 0.05 | 0.15 | 0.05 | 93 | 1010.9 |
| 20260903084147 | 17 | 254 | 9.7 | 20.9 | 0.05 | 0.15 | 0.05 | 93 | 1010.9 |
| 20260903083642 | 17 | 233 | 11.3 | 20.9 | 0.05 | 0.15 | 0.05 | 94 | 1010.9 |
| 20260903083143 | 16 | 227 | 8.0 | 20.9 | 0.05 | 0.15 | 0.05 | 92 | 1011.0 |
| 20260903082142 | 17 | 227 | 9.7 | 20.9 | 0.05 | 0.15 | 0.05 | 92 | 1011.1 |
| 20260903081643 | 17 | 209 | 6.4 | 19.3 | 0.05 | 0.15 | 0.05 | 91 | 1011.0 |
| 20260903081144 | 17 | 206 | 12.9 | 19.3 | 0.03 | 0.15 | 0.00 | 91 | 1011.1 |
| 20260903080641 | 17 | 307 | 6.4 | 14.5 | 0.00 | 0.15 | 0.00 | 91 | 1011.1 |
| 20260903080145 | 17 | 272 | 9.7 | 19.3 | 0.00 | 0.15 | 0.00 | 91 | 1010.9 |
| 20260903075143 | 17 | 233 | 6.4 | 20.9 | 0.00 | 0.15 | 0.00 | 92 | 1010.8 |
| 20260903074644 | 17 | 227 | 9.7 | 20.9 | 0.00 | 0.15 | 0.00 | 92 | 1011.0 |
| 20260903074144 | 17 | 244 | 9.7 | 20.9 | 0.00 | 0.15 | 0.00 | 92 | 1010.9 |
| 20260903073644 | 17 | 243 | 4.8 | 12.9 | 0.00 | 0.15 | 0.00 | 92 | 1010.8 |
| 20260903072645 | 17 | 223 | 8.0 | 20.9 | 0.00 | 0.15 | 0.00 | 92 | 1010.5 |
| 20260903072147 | 17 | 252 | 6.4 | 20.9 | 0.00 | 0.15 | 0.00 | 92 | 1010.4 |
| 20260903071143 | 17 | 189 | 6.4 | 24.1 | 0.00 | 0.15 | 0.00 | 92 | 1010.4 |
| 20260903070644 | 17 | 227 | 12.9 | 25.7 | 0.00 | 0.15 | 0.00 | 92 | 1010.4 |
| 20260903070144 | 17 | 203 | 9.7 | 25.7 | 0.00 | 0.15 | 0.00 | 92 | 1010.4 |
| 20260903065643 | 17 | 228 | 16.1 | 25.7 | 0.00 | 0.15 | 0.00 | 92 | 1010.4 |
| 20260903065143 | 17 | 186 | 16.1 | 25.7 | 0.00 | 0.15 | 0.00 | 92 | 1010.3 |
| 20260903064644 | 17 | 247 | 9.7 | 27.4 | 0.00 | 0.15 | 0.00 | 92 | 1010.4 |
| 20260903064142 | 17 | 219 | 16.1 | 27.4 | 0.00 | 0.15 | 0.00 | 92 | 1010.3 |
| 20260903063647 | 17 | 190 | 8.0 | 24.1 | 0.00 | 0.15 | 0.00 | 91 | 1010.0 |
| 20260903063145 | 17 | 210 | 17.7 | 25.7 | 0.00 | 0.15 | 0.00 | 91 | 1010.1 |
| 20260903062644 | 17 | 283 | 16.1 | 25.7 | 0.00 | 0.15 | 0.00 | 91 | 1009.9 |
| 20260903062144 | 17 | 257 | 11.3 | 22.5 | 0.00 | 0.15 | 0.00 | 91 | 1009.9 |
| 20260903061643 | 17 | 254 | 12.9 | 27.4 | 0.00 | 0.15 | 0.00 | 90 | 1009.8 |
| 20260903061144 | 17 | 200 | 17.7 | 30.6 | 0.00 | 0.15 | 0.00 | 90 | 1009.8 |
| 20260903060643 | 17 | 224 | 16.1 | 30.6 | 0.00 | 0.15 | 0.00 | 90 | 1009.7 |
| 20260903060143 | 17 | 199 | 9.7 | 24.1 | 0.00 | 0.15 | 0.00 | 91 | 1009.7 |
| 20260903055645 | 17 | 228 | 14.5 | 27.4 | 0.00 | 0.15 | 0.00 | 90 | 1009.6 |
| 20260903054144 | 16 | 241 | 9.7 | 22.5 | 0.00 | 0.15 | 0.00 | 92 | 1009.6 |
| 20260903053645 | 16 | 216 | 12.9 | 22.5 | 0.00 | 0.15 | 0.00 | 92 | 1009.6 |
| 20260903052645 | 16 | 245 | 9.7 | 17.7 | 0.00 | 0.15 | 0.00 | 92 | 1009.5 |
| 20260903052143 | 16 | 245 | 6.4 | 19.3 | 0.00 | 0.15 | 0.00 | 92 | 1009.5 |
| 20260903051643 | 16 | 204 | 11.3 | 19.3 | 0.00 | 0.15 | 0.00 | 92 | 1009.6 |
| 20260903051147 | 16 | 223 | 6.4 | 19.3 | 0.00 | 0.15 | 0.00 | 92 | 1009.7 |
| 20260903050142 | 16 | 203 | 6.4 | 17.7 | 0.00 | 0.15 | 0.00 | 92 | 1009.7 |
| 20260903045643 | 16 | 204 | 6.4 | 17.7 | 0.00 | 0.15 | 0.00 | 92 | 1009.6 |
| 20260903045145 | 16 | 221 | 6.4 | 24.1 | 0.00 | 0.15 | 0.00 | 92 | 1009.6 |
| 20260903044143 | 16 | 228 | 12.9 | 29.0 | 0.00 | 0.15 | 0.00 | 92 | 1009.5 |
| 20260903043643 | 16 | 224 | 12.9 | 33.8 | 0.00 | 0.15 | 0.00 | 92 | 1009.4 |
| 20260903042633 | 16 | 207 | 14.5 | 32.2 | 0.00 | 0.15 | 0.00 | 92 | 1009.2 |
| 20260903042132 | 16 | 162 | 17.7 | 32.2 | 0.00 | 0.15 | 0.00 | 92 | 1009.1 |
| 20260903041606 | 17 | 210 | 9.7 | 22.5 | 0.00 | 0.15 | 0.00 | 92 | 1009.2 |
| 20260903041110 | 17 | 237 | 14.5 | 29.0 | 0.00 | 0.15 | 0.00 | 92 | 1009.1 |
| 20260903040611 | 17 | 234 | 14.5 | 29.0 | 0.00 | 0.15 | 0.00 | 92 | 1009.1 |
| 20260903040108 | 17 | 210 | 14.5 | 25.7 | 0.00 | 0.15 | 0.00 | 92 | 1009.1 |
| 20260903035604 | 17 | 241 | 12.9 | 29.0 | 0.00 | 0.15 | 0.00 | 93 | 1009.2 |
| 20260903034533 | 17 | 223 | 16.1 | 24.1 | 0.00 | 0.15 | 0.00 | 93 | 1009.1 |
| 20260903034032 | 17 | 240 | 11.3 | 24.1 | 0.00 | 0.15 | 0.00 | 93 | 1009.2 |
| 20260903033533 | 17 | 231 | 12.9 | 19.3 | 0.00 | 0.15 | 0.00 | 94 | 1009.1 |
| 20260903033030 | 17 | 213 | 11.3 | 20.9 | 0.00 | 0.15 | 0.00 | 94 | 1009.1 |
| 20260903032529 | 17 | 193 | 8.0 | 27.4 | 0.00 | 0.15 | 0.00 | 94 | 1009.1 |
| 20260903032023 | 17 | 220 | 11.3 | 27.4 | 0.00 | 0.15 | 0.00 | 94 | 1009.2 |
| 20260903031512 | 17 | 238 | 9.7 | 24.1 | 0.00 | 0.15 | 0.00 | 94 | 1009.0 |
| 20260903030507 | 17 | 188 | 8.0 | 19.3 | 0.00 | 0.15 | 0.00 | 93 | 1009.0 |
| 20260903030006 | 17 | 226 | 9.7 | 24.1 | 0.00 | 0.15 | 0.00 | 93 | 1008.9 |
| 20260903025505 | 17 | 196 | 14.5 | 24.1 | 0.00 | 0.15 | 0.00 | 93 | 1009.0 |
| 20260903024958 | 17 | 200 | 16.1 | 33.8 | 0.00 | 0.15 | 0.00 | 93 | 1009.0 |
| 20260903024445 | 17 | 219 | 14.5 | 33.8 | 0.00 | 0.15 | 0.00 | 93 | 1008.9 |
| 20260903023944 | 17 | 214 | 14.5 | 33.8 | 0.00 | 0.15 | 0.00 | 93 | 1009.0 |
| 20260903022942 | 17 | 223 | 14.5 | 29.0 | 0.00 | 0.15 | 0.00 | 93 | 1009.2 |
| 20260903022441 | 17 | 196 | 14.5 | 25.7 | 0.00 | 0.15 | 0.00 | 93 | 1009.1 |
| 20260903021939 | 17 | 169 | 12.9 | 27.4 | 0.00 | 0.15 | 0.00 | 93 | 1009.3 |
| 20260903020941 | 17 | 209 | 9.7 | 24.1 | 0.00 | 0.15 | 0.00 | 93 | 1009.2 |
| 20260903020440 | 17 | 217 | 14.5 | 24.1 | 0.00 | 0.15 | 0.00 | 93 | 1009.2 |
| 20260903015940 | 17 | 216 | 12.9 | 27.4 | 0.00 | 0.15 | 0.00 | 93 | 1009.3 |
| 20260903015439 | 17 | 199 | 16.1 | 27.4 | 0.00 | 0.15 | 0.00 | 93 | 1009.3 |
| 20260903014936 | 17 | 248 | 14.5 | 29.0 | 0.00 | 0.15 | 0.00 | 93 | 1009.3 |
| 20260903014433 | 17 | 238 | 16.1 | 29.0 | 0.00 | 0.15 | 0.00 | 93 | 1009.3 |
| 20260903013934 | 17 | 188 | 12.9 | 27.4 | 0.00 | 0.15 | 0.00 | 93 | 1009.3 |
| 20260903013412 | 17 | 226 | 9.7 | 22.5 | 0.00 | 0.15 | 0.00 | 93 | 1009.3 |
| 20260903012908 | 17 | 240 | 11.3 | 25.7 | 0.00 | 0.15 | 0.00 | 93 | 1009.2 |
| 20260903012405 | 17 | 168 | 16.1 | 29.0 | 0.00 | 0.15 | 0.00 | 93 | 1009.2 |
| 20260903011906 | 17 | 207 | 9.7 | 30.6 | 0.00 | 0.15 | 0.00 | 94 | 1009.2 |
| 20260903011405 | 17 | 207 | 11.3 | 30.6 | 0.00 | 0.15 | 0.00 | 94 | 1009.2 |
| 20260903010906 | 17 | 182 | 16.1 | 24.1 | 0.00 | 0.15 | 0.00 | 94 | 1009.3 |